Location: Newark
(59.4564°N, 26.6917°E)
Time: 03:09:41
(UTC+00:00)

SR - Pass Details

Date: 25 November 2019
Orbit: 573 x 882 km, 66.7° (Epoch: 12 December)

Event Time Altitude Azimuth Distance (km) Brightness Sun altitude
Rises 17:25:46 0° 301° (WNW) 3,448 ? -28.6°
Reaches altitude 10° 17:28:18 10° 306° (NW) 2,531 ? -28.9°
Enters shadow 17:33:26 52° 358° (N) 1,097 ? -29.6°
Maximum altitude 17:34:07 55° 24° (NNE) 1,062 - -29.7°
Drops below altitude 10° 17:39:56 10° 102° (ESE) 2,529 - -30.4°
Sets 17:42:27 0° 107° (ESE) 3,445 - -30.7°
